Weather History for KTTF - January, 2013

Change the Weather History Date:

Saturday, January 5, 2013

  Actual Average Record
Temperature  
Mean Temperature 27 °F -  
Max Temperature 35 °F 32 °F 57 °F (1998)
Min Temperature 19 °F 15 °F -9 °F (1981)
Degree Days  
Heating Degree Days 38    
Moisture  
Dew Point 23 °F    
Average Humidity 84    
Maximum Humidity 100    
Minimum Humidity 70    
Precipitation  
Precipitation 0.00 in - - ()
Sea Level Pressure  
Sea Level Pressure 30.17 in    
Wind  
Wind Speed 7 mph (SW)    
Max Wind Speed 14 mph    
Max Gust Speed 20 mph    
Visibility 7 miles    
Events Snow    
Averages and records for this station are not official NWS values.
T = Trace of Precipitation, MM = Missing Value Source: NWS Daily Summary

Daily Weather History Graph

Daily Weather History Graph

Search for Another Location

Airport or City:

Trip Planner

Search our weather history database for the weather conditions in past years. The results will help you decide how hot, cold, wet, or windy it might be!

Date:

Astronomy

Jan. 05, 2013 Rise Set
Actual Time 8:01 AM EST 5:17 PM EST
Civil Twilight 7:30 AM EST 5:48 PM EST
Nautical Twilight 6:55 AM EST 6:23 PM EST
Astronomical Twilight 6:21 AM EST 6:57 PM EST
Moon 1:03 AM EST (1/5) 12:09 PM EST (1/5)
Length of Visible Light 10h 18m
Length of Day
9h 15m
Last Quarter, 44% of the Moon is Illuminated
Jan 5
Last Quarter
Jan 11
New
Jan 18
First Quarter
Jan 26
Full
Feb 3
Last Quarter

Hourly Weather History & Observations

Time (EST) Temp. Windchill Dew Point Humidity Pressure Visibility Wind Dir Wind Speed Gust Speed Precip Events Conditions
12:11 AM 24.8 °F 15.3 °F 21.2 °F 86% 30.19 in 10.0 mi West 9.2 mph - N/A   Clear
12:31 AM 24.8 °F 16.1 °F 19.4 °F 80% 30.19 in 10.0 mi West 8.1 mph - N/A   Clear
12:51 AM 23.0 °F 12.4 °F 19.4 °F 86% 30.19 in 10.0 mi WSW 10.4 mph - N/A   Clear
1:11 AM 23.0 °F 12.4 °F 19.4 °F 86% 30.19 in 10.0 mi WSW 10.4 mph - N/A   Clear
1:31 AM 23.0 °F 12.4 °F 19.4 °F 86% 30.19 in 10.0 mi WSW 10.4 mph - N/A   Clear
1:51 AM 23.0 °F 13.9 °F 19.4 °F 86% 30.20 in 10.0 mi WSW 8.1 mph - N/A   Clear
2:11 AM 23.0 °F 13.9 °F 19.4 °F 86% 30.20 in 10.0 mi WSW 8.1 mph - N/A   Clear
2:31 AM 21.2 °F 12.6 °F 19.4 °F 93% 30.22 in 7.0 mi SW 6.9 mph - N/A   Clear
2:52 AM 21.2 °F 12.6 °F 19.4 °F 93% 30.23 in 7.0 mi SW 6.9 mph - N/A   Clear
3:12 AM 21.2 °F 13.6 °F 19.4 °F 93% 30.23 in 7.0 mi WSW 5.8 mph - N/A   Clear
3:32 AM 21.2 °F 13.6 °F 19.4 °F 93% 30.24 in 7.0 mi WSW 5.8 mph - N/A   Clear
3:52 AM 21.2 °F 16.4 °F 17.6 °F 86% 30.23 in 7.0 mi WSW 3.5 mph - N/A   Clear
4:12 AM 19.4 °F 11.5 °F 17.6 °F 93% 30.23 in 7.0 mi WSW 5.8 mph - N/A   Clear
4:32 AM 19.4 °F 11.5 °F 17.6 °F 93% 30.23 in 7.0 mi SW 5.8 mph - N/A   Clear
4:52 AM 19.4 °F 12.8 °F 17.6 °F 93% 30.24 in 7.0 mi SW 4.6 mph - N/A   Clear
5:12 AM 19.4 °F 14.3 °F 19.4 °F 100% 30.24 in 7.0 mi SSW 3.5 mph - N/A   Clear
5:32 AM 21.2 °F 13.6 °F 19.4 °F 93% 30.25 in 7.0 mi SSW 5.8 mph - N/A   Clear
5:52 AM 21.2 °F 12.6 °F 17.6 °F 86% 30.25 in 7.0 mi SW 6.9 mph - N/A   Clear
6:12 AM 19.4 °F - 17.6 °F 93% 30.24 in 7.0 mi Calm Calm - N/A   Clear
6:33 AM 19.4 °F 11.5 °F 17.6 °F 93% 30.25 in 5.0 mi SW 5.8 mph - N/A   Clear
6:53 AM 19.4 °F 11.5 °F 17.6 °F 93% 30.25 in 5.0 mi SSW 5.8 mph - N/A   Clear
7:13 AM 19.4 °F 11.5 °F 17.6 °F 93% 30.26 in 5.0 mi SW 5.8 mph - N/A   Clear
7:33 AM 19.4 °F 9.5 °F 17.6 °F 93% 30.26 in 5.0 mi SW 8.1 mph - N/A   Clear
7:53 AM 19.4 °F 12.8 °F 17.6 °F 93% 30.26 in 5.0 mi SW 4.6 mph - N/A   Clear
8:13 AM 19.4 °F 14.3 °F 17.6 °F 93% 30.26 in 4.0 mi SSW 3.5 mph - N/A   Clear
8:33 AM 19.4 °F - 17.6 °F 93% 30.26 in 4.0 mi Calm Calm - N/A   Clear
8:53 AM 21.2 °F 16.4 °F 19.4 °F 93% 30.27 in 4.0 mi South 3.5 mph - N/A   Clear
9:13 AM 21.2 °F - 19.4 °F 93% 30.27 in 4.0 mi Calm Calm - N/A   Clear
9:34 AM 23.0 °F 15.8 °F 19.4 °F 86% 30.27 in 5.0 mi SSW 5.8 mph - N/A   Clear
9:54 AM 24.8 °F - 21.2 °F 86% 30.27 in 5.0 mi Calm Calm - N/A   Clear
10:14 AM 26.6 °F 21.2 °F 21.2 °F 80% 30.27 in 5.0 mi SSW 4.6 mph - N/A   Haze
10:54 AM 28.4 °F 24.6 °F 21.2 °F 74% 30.27 in 5.0 mi SW 3.5 mph - N/A   Haze
11:14 AM 28.4 °F - 21.2 °F 74% 30.25 in 5.0 mi Calm Calm - N/A   Haze
11:54 AM 30.2 °F 25.4 °F 23.0 °F 75% 30.24 in 7.0 mi South 4.6 mph - N/A   Clear
12:14 PM 30.2 °F 23.4 °F 23.0 °F 75% 30.22 in 7.0 mi South 6.9 mph - N/A   Clear
12:34 PM 30.2 °F 26.7 °F 24.8 °F 80% 30.20 in 7.0 mi South 3.5 mph - N/A   Clear
12:54 PM 30.2 °F 21.9 °F 24.8 °F 80% 30.19 in 7.0 mi South 9.2 mph - N/A   Clear
1:15 PM 30.2 °F 22.6 °F 24.8 °F 80% 30.17 in 7.0 mi SSE 8.1 mph - N/A   Clear
1:35 PM 32.0 °F 24.2 °F 24.8 °F 75% 30.17 in 7.0 mi SSW 9.2 mph - N/A   Clear
1:55 PM 33.8 °F 27.0 °F 24.8 °F 70% 30.17 in 7.0 mi SSW 8.1 mph - N/A   Clear
2:15 PM 33.8 °F 26.4 °F 24.8 °F 70% 30.16 in 7.0 mi SSW 9.2 mph - N/A   Clear
2:35 PM 33.8 °F 28.6 °F 24.8 °F 70% 30.14 in 7.0 mi SSW 5.8 mph - N/A   Clear
2:55 PM 33.8 °F 27.0 °F 24.8 °F 70% 30.13 in 10.0 mi SSW 8.1 mph - N/A   Clear
3:15 PM 33.8 °F 28.6 °F 24.8 °F 70% 30.13 in 7.0 mi South 5.8 mph - N/A   Clear
3:35 PM 33.8 °F 28.6 °F 26.6 °F 75% 30.13 in 7.0 mi SSE 5.8 mph - N/A   Clear
3:55 PM 32.0 °F 25.6 °F 26.6 °F 80% 30.12 in 7.0 mi SSE 6.9 mph - N/A   Clear
4:11 PM 33.8 °F 27.0 °F 26.6 °F 75% 30.12 in 7.0 mi South 8.1 mph - N/A   Clear
4:31 PM 32.0 °F 25.6 °F 26.6 °F 80% 30.12 in 7.0 mi South 6.9 mph - N/A   Clear
4:51 PM 33.8 °F 25.8 °F 24.8 °F 70% 30.10 in 10.0 mi South 10.4 mph - N/A   Scattered Clouds
5:11 PM 32.0 °F 24.2 °F 24.8 °F 75% 30.11 in 7.0 mi South 9.2 mph - N/A   Scattered Clouds
5:51 PM 32.0 °F 27.5 °F 26.6 °F 80% 30.08 in 10.0 mi SSW 4.6 mph - N/A   Scattered Clouds
6:11 PM 33.8 °F 29.6 °F 26.6 °F 75% 30.09 in 10.0 mi SW 4.6 mph - N/A   Mostly Cloudy
6:31 PM 33.8 °F 27.0 °F 26.6 °F 75% 30.10 in 10.0 mi SSW 8.1 mph - N/A   Overcast
6:52 PM 33.8 °F 27.0 °F 26.6 °F 75% 30.09 in 10.0 mi SSW 8.1 mph - N/A   Overcast
7:12 PM 33.8 °F 25.8 °F 26.6 °F 75% 30.09 in 10.0 mi SSW 10.4 mph - N/A   Overcast
7:32 PM 33.8 °F 25.8 °F 26.6 °F 75% 30.07 in 10.0 mi SSW 10.4 mph - N/A   Overcast
7:52 PM 35.6 °F 27.5 °F 26.6 °F 70% 30.08 in 10.0 mi SW 11.5 mph - N/A   Overcast
8:12 PM 35.6 °F 26.6 °F 28.4 °F 75% 30.08 in 7.0 mi SW 13.8 mph 19.6 mph N/A Snow Light Snow
8:32 PM 33.8 °F 24.3 °F 30.2 °F 87% 30.08 in 7.0 mi SW 13.8 mph 19.6 mph N/A   Overcast
9:12 PM 33.8 °F 25.8 °F 32.0 °F 93% 30.07 in 1.8 mi SW 10.4 mph - N/A Snow Light Snow
9:32 PM 33.8 °F 25.3 °F 32.0 °F 93% 30.07 in 4.0 mi SW 11.5 mph - N/A Snow Light Snow
9:52 PM 33.8 °F 26.4 °F 32.0 °F 93% 30.06 in 4.0 mi SW 9.2 mph - N/A Snow Light Snow
10:13 PM 33.8 °F 27.0 °F 32.0 °F 93% 30.06 in 5.0 mi SSW 8.1 mph - N/A Snow Light Snow
10:33 PM 33.8 °F 26.4 °F 32.0 °F 93% 30.06 in 5.0 mi SW 9.2 mph - N/A Snow Light Snow
10:53 PM 33.8 °F 25.8 °F 32.0 °F 93% 30.05 in 5.0 mi SSW 10.4 mph - N/A   Overcast
11:13 PM 33.8 °F 26.4 °F 32.0 °F 93% 30.05 in 5.0 mi SW 9.2 mph - N/A   Overcast
11:33 PM 33.8 °F 25.3 °F 32.0 °F 93% 30.05 in 5.0 mi SW 11.5 mph - N/A   Overcast
11:53 PM 33.8 °F 27.0 °F 32.0 °F 93% 30.04 in 7.0 mi SW 8.1 mph - N/A   Overcast